sat.trackr.live / text

‹ back to catalog

STARLINK-30053

NORAD 56700 · 2023-067N

PAYLOAD ACTIVE UNKNOWN

§ Identity

Operator
Country
US
Launch date
2023-05-19
Launch site
AFETR
Launch vehicle
Mass (kg)
RCS (m²)

Purposes: comms

External: N2YO · Heavens-Above · Gunter

§ Orbital elements

Epoch: 2026-09-20T10:30:23.020416Z

Period
94.27 min
Inclination
43.0030°
Eccentricity
0.0001533
Mean motion
15.27579348 rev/d
Perigee alt
482.0 km
Apogee alt
484.1 km
Semi-major
6,861.2 km
B*
2.0418e-5
RAAN
251.2829°
Arg perigee
273.6586°
Mean anomaly
86.4090°
Rev number
18,548

§ Raw data

STARLINK-300531 56700U 23067N   26263.43776644  .00000300  00000+0  20418-4 0  99972 56700  43.0030 251.2829 0001533 273.6586  86.4090 15.27579348185482

JSON: /api/v1/satellites/56700 · /tle

For live sub-satellite position, see the globe view (requires WebGL).

§ Visibility from observer

Set your observer location to see the next 7 days of passes ≥ 10°. The values pass through the URL so the page stays shareable.

No JS? Fill the form by hand. The geolocation button needs JavaScript.